Location: Saratoga Springs
(43.0831°N, 73.7850°W)
Time: 05:22:14
(UTC-04:00)

Vanguard 2 - Pass Details

Date: 19 April 2024
Orbit: 553 x 2914 km, 32.9° (Epoch: 17 May)

Event Time Altitude Azimuth Distance (km) Brightness Sun altitude
Rises 07:10:35 0° 272° (W) 6,725 11.7 10.8°
Reaches altitude 10° 07:15:15 10° 268° (W) 5,742 11.4 11.6°
Maximum altitude 07:31:34 48° 202° (SSW) 3,166 10.7 14.6°
Drops below altitude 10° 07:44:00 10° 133° (SE) 4,445 12.3 16.9°
Sets 07:47:07 0° 127° (SE) 5,156 12.6 17.4°
